Strona główna
METAR-TAF:

METAR-TAF

Lotnisko :

Sisseton Municipal Airport

Sisseton, Dakota Południowa, Stany Zjednoczone

Szerokość geograficzna: 45-40-08N, Długość geograficzna: 096-59-29W, wysokość: 354 m

Aktualna obserwacja pogody

Raport powstał 30 minut temu, godzina 17:56 UTC
Wiatr 5 kt od północno-północny zachód
Temperatura 14°C
Wilgotność 44%
Ciśnienie 1004 hPa

METAR: K8D3 111756Z AUTO 34005KT 14/02 A2965 RMK AO1 SLP044 T01390022 10139 20011 58004

czas: 13:26 (18:26 UTC)


TAF: brakujący

Obserwacja i prognoza pogody dla ponad 4000 lotnisk (raport METAR i TAF).

Dostępne stacje oznaczono żółtymi i czerwonymi punktami na mapie.

Najedź kursorem aby zobaczyć nazwę stacji.

Kliknij aby zobaczyć obserwacje i prognozy pogody.

Aby zmienić mapę: kliknij na zielony przycisk z czarnym krzyżykiem, aby powiększyć; na zielony przycisk z myślnikiem, aby pomniejszyć; na zielone strzałki, aby przejść do map sąsiednich.


METAR-TAF: